Stations météo

réclame
Mon MeteoGroup
Aultbea, Grande-Bretagne (3034): Température de l'air & dewpoint: 12.02.2019 00:00:00 - 18.02.2019 00:00:00 (GMT)Aultbea, Grande-Bretagne (3034): Température de l'air -20cm & Température de l'air -100cm: 12.02.2019 00:00:00 - 18.02.2019 00:00:00 (GMT)Aultbea, Grande-Bretagne (3034): Vitesse du vent & gusts: 12.02.2019 00:00:00 - 18.02.2019 00:00:00 (GMT)Aultbea, Grande-Bretagne (3034): Direction du vent: 12.02.2019 00:00:00 - 18.02.2019 00:00:00 (GMT)Aultbea, Grande-Bretagne (3034): reduced air pressure: 12.02.2019 00:00:00 - 18.02.2019 00:00:00 (GMT)Aultbea, Grande-Bretagne (3034): visibility: 12.02.2019 00:00:00 - 18.02.2019 00:00:00 (GMT)Aultbea, Grande-Bretagne (3034): Quantités de précipitations: 12.02.2019 00:00:00 - 18.02.2019 00:00:00 (GMT)
Date & Time tt [°C] td [°C] tt -20cm [°C] tt -100cm [°C] ff [km/h] ff [knt] fx [km/h] fx [knt] dd ppp [hPa] vv [km] rr [mm]
18.02.2019 00:00:00 9,4 3,4 - - 48 26 74 40 S 994,7 26 0,0
17.02.2019 23:00:00 9,4 3,7 - - 46 25 72 39 S 995,6 30 0,0
17.02.2019 22:00:00 9,2 4,3 - - 41 22 63 34 S 995,7 26 0,0
17.02.2019 21:00:00 9,8 3,1 - - 46 25 76 41 S 995,9 40 0,0
17.02.2019 20:00:00 9,5 3,4 - - 48 26 68 37 S 996,5 26 0,0
17.02.2019 19:00:00 8,4 4,5 - - 48 26 70 38 SSW 997,3 5 0,0
17.02.2019 18:00:00 8,4 4,6 - - 42 23 59 32 S 997,2 23 0,2
17.02.2019 17:00:00 8,5 4,8 - - 37 20 54 29 S 997,2 29 0,0
17.02.2019 16:00:00 8,5 5,1 - - 41 22 55 30 S 997,4 21 0,0
17.02.2019 15:00:00 7,7 5,3 - - 42 23 57 31 S 997,3 35 0,6
17.02.2019 14:00:00 7,4 5,8 - - 42 23 74 40 SW 997,2 5 0,2
17.02.2019 13:00:00 10,0 7,4 - - 46 25 65 35 S 996,2 35 0,2
17.02.2019 12:00:00 10,4 8,0 - - 24 13 - - S 996,2 26 -
17.02.2019 11:00:00 10,8 7,6 - - 21 11 - - S 996,5 24 -
17.02.2019 10:00:00 10,1 7,6 - - 11 6 - - SSE 997,4 45 0,2
17.02.2019 09:00:00 9,5 8,0 6,7 6,2 13 7 - - S 997,9 26 0,4
17.02.2019 08:00:00 9,0 8,1 - - 9 5 - - SSE 998,5 10 0,8
17.02.2019 07:00:00 9,3 8,1 - - 11 6 - - SSE 998,9 6 0,6
17.02.2019 06:00:00 10,3 8,0 - - 21 11 - - S 999,0 19 0,4
17.02.2019 05:00:00 10,7 7,8 - - 34 18 65 35 SSW 999,6 13 0,0
17.02.2019 04:00:00 11,6 6,1 - - 50 27 68 37 S 1000,3 35 0,0
17.02.2019 03:00:00 10,7 7,0 - - 44 24 68 37 S 1001,1 30 0,0
17.02.2019 02:00:00 11,1 5,3 - - 21 11 - - S 1001,7 35 0,0
17.02.2019 01:00:00 10,5 4,3 - - 13 7 - - SE 1002,5 30 0,0
17.02.2019 00:00:00 9,6 4,8 - - 11 6 - - SSE 1003,5 28 0,0
16.02.2019 23:00:00 10,6 4,4 - - 21 11 - - S 1004,5 40 0,0
16.02.2019 22:00:00 10,2 4,7 - - 16 9 - - S 1005,4 45 0,0
16.02.2019 21:00:00 9,9 4,7 - - 18 10 - - S 1005,9 50 0,0
16.02.2019 20:00:00 9,7 4,5 - - 15 8 - - S 1006,5 50 0,0
16.02.2019 19:00:00 9,7 4,6 - - 24 13 - - S 1006,9 40 0,0
16.02.2019 18:00:00 9,6 4,0 - - 26 14 - - S 1007,4 35 0,0
16.02.2019 17:00:00 9,4 4,4 - - 28 15 - - S 1007,7 50 0,0
16.02.2019 16:00:00 9,4 5,3 - - 29 16 - - SSW 1008,0 50 0,0
16.02.2019 15:00:00 9,8 5,5 - - 34 18 - - SSW 1008,7 28 0,0
16.02.2019 14:00:00 9,9 6,6 - - 31 17 46 25 S 1009,6 21 0,2
16.02.2019 13:00:00 8,9 7,1 - - 29 16 57 31 SSW 1010,0 14 0,2
16.02.2019 12:00:00 8,6 7,7 - - 35 19 52 28 SSW 1010,2 2,8 0,2
16.02.2019 11:00:00 8,9 8,0 - - 34 18 48 26 S 1009,4 3,0 0,8
16.02.2019 10:00:00 8,9 8,2 - - 31 17 - - S 1008,9 2,9 0,4
16.02.2019 09:00:00 9,3 8,0 6,7 6,0 31 17 - - S 1008,1 45 0,0
16.02.2019 08:00:00 9,1 8,0 - - 24 13 - - S 1007,7 12 0,0
16.02.2019 07:00:00 8,7 8,2 - - 16 9 - - S 1007,5 9 0,0
16.02.2019 06:00:00 8,6 8,0 - - 21 11 - - S 1007,6 5 0,2
16.02.2019 05:00:00 9,0 7,7 - - 24 13 - - S 1007,2 25 0,0
16.02.2019 04:00:00 9,0 7,7 - - 21 11 - - SSW 1007,3 25 0,0
16.02.2019 03:00:00 9,1 7,4 - - 22 12 - - S 1007,5 16 0,0
16.02.2019 02:00:00 8,9 6,9 - - 13 7 - - S 1007,5 20 0,0
16.02.2019 01:00:00 8,1 6,1 - - 15 8 - - SSE 1006,9 35 0,0
16.02.2019 00:00:00 8,5 6,8 - - 13 7 - - S 1007,1 35 0,2
15.02.2019 23:00:00 8,9 7,8 - - 31 17 52 28 S 1007,2 10 3,6
15.02.2019 22:00:00 9,5 8,7 - - 39 21 50 27 SSW 1007,5 2,9 5,8
15.02.2019 21:00:00 10,0 8,7 - - 35 19 57 31 S 1006,3 6 2,0
15.02.2019 20:00:00 9,7 8,3 - - 42 23 59 32 S 1007,5 8 2,0
15.02.2019 19:00:00 9,8 8,1 - - 44 24 63 34 S 1008,0 7 0,6
15.02.2019 18:00:00 10,3 7,3 - - 48 26 70 38 SSW 1008,3 11 0,0
15.02.2019 17:00:00 10,7 6,4 - - 50 27 74 40 S 1008,6 15 0,0
15.02.2019 16:00:00 10,8 6,1 - - 54 29 72 39 S 1008,6 16 0,0
15.02.2019 15:00:00 11,0 6,0 - - 52 28 74 40 S 1009,1 22 0,0
15.02.2019 14:00:00 11,2 5,6 - - 54 29 85 46 S 1009,7 25 0,0
15.02.2019 13:00:00 11,4 4,9 - - 57 31 81 44 S 1010,5 16 0,0
15.02.2019 12:00:00 11,8 4,9 - - 42 23 63 34 S 1011,1 26 0,0
15.02.2019 11:00:00 12,7 5,0 - - 46 25 65 35 S 1011,4 28 0,0
15.02.2019 10:00:00 12,5 4,5 - - 42 23 61 33 S 1011,2 40 0,0
15.02.2019 09:00:00 12,1 2,6 6,2 5,9 39 21 54 29 SSW 1012,2 45 0,0
15.02.2019 08:00:00 11,3 -0,4 - - 35 19 57 31 S 1012,7 50 0,0
15.02.2019 07:00:00 11,3 -1,3 - - 37 20 52 28 S 1013,4 50 0,0
15.02.2019 06:00:00 11,2 1,1 - - 29 16 46 25 S 1014,0 50 0,0
15.02.2019 05:00:00 10,5 2,6 - - 21 11 - - S 1014,2 45 0,0
15.02.2019 04:00:00 10,3 3,3 - - 26 14 - - S 1015,3 30 0,0
15.02.2019 03:00:00 10,3 3,1 - - 22 12 - - S 1016,5 35 0,0
15.02.2019 02:00:00 10,3 3,1 - - 34 18 50 27 SSW 1017,1 40 0,0
15.02.2019 01:00:00 10,4 2,7 - - 16 9 - - S 1017,4 45 0,0
15.02.2019 00:00:00 9,5 3,0 - - 13 7 - - SSW 1017,6 30 0,0
14.02.2019 23:00:00 10,6 2,6 - - 15 8 - - SSW 1017,7 35 0,0
14.02.2019 22:00:00 11,0 3,1 - - 16 9 - - S 1017,7 35 0,0
14.02.2019 21:00:00 11,9 3,1 - - 26 14 - - S 1017,9 30 0,0
14.02.2019 20:00:00 8,7 3,6 - - 11 6 - - E 1018,2 30 0,0
14.02.2019 19:00:00 10,2 5,2 - - 9 5 - - E 1018,5 35 0,0
14.02.2019 18:00:00 10,4 5,4 - - 16 9 - - S 1019,2 45 0,0
14.02.2019 17:00:00 10,4 6,3 - - 24 13 - - SSW 1019,4 20 0,0
14.02.2019 16:00:00 10,7 7,2 - - 29 16 - - SSW 1020,2 24 0,0
14.02.2019 15:00:00 10,9 7,5 - - 29 16 48 26 SSW 1020,8 22 0,0
14.02.2019 14:00:00 10,7 8,0 - - 37 20 50 27 S 1020,7 28 0,0
14.02.2019 13:00:00 10,2 8,1 - - 35 19 57 31 S 1021,2 35 0,0
14.02.2019 12:00:00 10,1 8,2 - - 39 21 54 29 S 1021,2 40 0,0
14.02.2019 11:00:00 9,6 8,6 - - 37 20 54 29 S 1020,9 8 0,2
14.02.2019 10:00:00 9,7 8,5 - - 22 12 - - S 1020,7 11 0,0
14.02.2019 09:00:00 9,7 8,5 6,2 5,7 28 15 46 25 S 1020,4 20 0,2
14.02.2019 08:00:00 9,6 8,7 - - 34 18 55 30 SSW 1019,6 11 0,0
14.02.2019 07:00:00 9,7 8,6 - - 39 21 59 32 SSW 1018,9 7 0,0
14.02.2019 06:00:00 9,8 8,7 - - 44 24 68 37 SW 1018,2 5 0,0
14.02.2019 05:00:00 10,2 8,6 - - 52 28 70 38 SW 1017,5 11 0,0
14.02.2019 04:00:00 10,5 8,3 - - 50 27 68 37 SW 1017,0 7 0,0
14.02.2019 03:00:00 10,2 8,2 - - 48 26 70 38 SSW 1016,4 13 0,0
14.02.2019 02:00:00 10,6 7,9 - - 46 25 72 39 SSW 1016,2 9 0,0
14.02.2019 01:00:00 10,7 7,8 - - 50 27 78 42 SSW 1016,0 14 0,0
14.02.2019 00:00:00 10,6 7,5 - - 35 19 59 32 S 1015,1 16 0,0
13.02.2019 23:00:00 10,4 7,5 - - 41 22 59 32 S 1014,6 22 0,0
13.02.2019 22:00:00 10,1 7,7 - - 42 23 65 35 S 1014,8 12 0,0
13.02.2019 21:00:00 10,0 7,8 - - 48 26 72 39 S 1014,7 12 0,0
13.02.2019 20:00:00 10,0 7,8 - - 52 28 85 46 SSW 1014,6 6 0,2
13.02.2019 19:00:00 10,2 7,9 - - 50 27 72 39 S 1014,1 7 0,0
13.02.2019 18:00:00 11,1 7,3 - - 48 26 68 37 S 1014,5 21 0,0
13.02.2019 17:00:00 10,7 7,4 - - 37 20 61 33 S 1014,1 21 0,0
13.02.2019 16:00:00 10,7 7,3 - - 44 24 65 35 S 1014,9 18 0,0
13.02.2019 15:00:00 10,8 7,5 - - 44 24 63 34 S 1015,2 20 0,0
13.02.2019 14:00:00 10,5 7,8 - - 37 20 63 34 S 1015,5 20 0,0
13.02.2019 13:00:00 9,9 8,4 - - 41 22 72 39 S 1015,3 6 0,0
13.02.2019 12:00:00 10,1 8,3 - - 44 24 67 36 S 1015,6 12 0,0
13.02.2019 11:00:00 10,0 8,3 - - 41 22 65 35 S 1015,3 13 0,8
13.02.2019 10:00:00 10,3 7,8 - - 46 25 63 34 S 1015,3 20 0,0
13.02.2019 09:00:00 10,0 8,0 5,7 5,7 44 24 59 32 S 1015,5 7 0,0
13.02.2019 08:00:00 10,5 8,0 - - 24 13 - - S 1016,1 26 0,0
13.02.2019 07:00:00 10,2 8,4 - - 31 17 50 27 S 1015,9 20 0,0
13.02.2019 06:00:00 10,0 8,7 - - 34 18 52 28 S 1016,1 20 0,8
13.02.2019 05:00:00 9,8 8,5 - - 34 18 48 26 S 1016,5 16 0,4
13.02.2019 04:00:00 10,4 6,9 - - 24 13 50 27 S 1016,8 35 0,0
13.02.2019 03:00:00 10,2 4,4 - - 21 11 - - S 1017,8 30 0,0
13.02.2019 02:00:00 9,2 2,9 - - 26 14 - - S 1018,9 17 0,0
13.02.2019 01:00:00 7,8 4,5 - - 13 7 - - SSE 1019,3 11 0,0
13.02.2019 00:00:00 8,7 5,9 - - 21 11 - - SE 1019,9 10 0,0
12.02.2019 23:00:00 9,4 5,4 - - 31 17 - - SW 1020,2 10 0,0
12.02.2019 22:00:00 9,2 5,6 - - 24 13 46 25 SSW 1020,7 10 0,0
12.02.2019 21:00:00 9,3 6,0 - - 35 19 52 28 SW 1020,8 9 0,0
12.02.2019 20:00:00 9,4 6,3 - - 37 20 54 29 SSW 1020,7 8 0,0
12.02.2019 19:00:00 9,9 6,2 - - 34 18 52 28 SSW 1020,7 10 0,0
12.02.2019 18:00:00 10,0 6,4 - - 41 22 61 33 SSW 1019,2 11 0,0
12.02.2019 17:00:00 10,5 5,9 - - 42 23 59 32 SW 1018,2 11 0,0
12.02.2019 16:00:00 10,4 6,9 - - 46 25 63 34 SSW 1017,5 10 0,0
12.02.2019 15:00:00 11,0 7,5 - - 50 27 68 37 SSW 1015,9 10 0,0
12.02.2019 14:00:00 10,8 8,4 - - 52 28 74 40 SW 1014,7 10 0,0
12.02.2019 13:00:00 10,8 8,8 - - 50 27 70 38 SSW 1013,6 11 0,0
12.02.2019 12:00:00 9,9 8,9 - - 46 25 68 37 SSW 1013,7 13 0,2
12.02.2019 11:00:00 9,8 8,3 - - 41 22 63 34 SSW 1013,6 16 0,0
12.02.2019 10:00:00 9,2 8,0 - - 46 25 70 38 S 1013,8 6 0,4
12.02.2019 09:00:00 9,0 7,7 4,9 5,7 48 26 68 37 S 1014,1 4,4 0,0
12.02.2019 08:00:00 9,6 7,0 - - 42 23 57 31 S 1014,1 28 0,0
12.02.2019 07:00:00 9,2 6,8 - - 39 21 54 29 S 1014,9 35 0,0
12.02.2019 06:00:00 8,7 6,9 - - 29 16 54 29 S 1015,7 19 0,0
12.02.2019 05:00:00 8,4 6,9 - - 39 21 65 35 S 1016,1 23 0,0
12.02.2019 04:00:00 8,0 6,5 - - 48 26 72 39 S 1016,7 14 0,6
12.02.2019 03:00:00 8,5 5,8 - - 44 24 65 35 S 1017,3 10 0,0
12.02.2019 02:00:00 8,6 5,7 - - 35 19 63 34 S 1017,9 35 0,0
12.02.2019 01:00:00 8,6 5,6 - - 37 20 55 30 S 1018,9 27 0,0
12.02.2019 00:00:00 8,8 5,7 - - 37 20 55 30 S 1019,9 27 0,0

tt = Température de l'air
td = dewpoint
tt -20cm = Température de l'air -20cm
tt -100cm = Température de l'air -100cm
ff = Vitesse du vent
fx = gusts
dd = Direction du vent
ppp = reduced air pressure
vv = visibility
rr = Quantités de précipitations

stations d'obs. à proximité